Regional Weather Roundup
Issued by NWS Lake Charles, LA

Current Version | Previous Version | Text Only | Print | Product List | Glossary On
Versions: 1 2 3 4 5 6 7 8 9 10 11 12 13 14 15 16 17 18 19 20 21 22 23 24 25 26 27 28 29 30 31 32 33 34 35 36 37 38 39 40 41 42 43 44 45 46 47 48 49 50
000
ASUS44 KLCH 300910
RWRLCH
RWRLCH
REGIONAL WEATHER ROUNDUP
NATIONAL WEATHER SERVICE LAKE CHARLES LA
400 AM CDT WED JUL 30 2014

Note: "fair" indicates few or no clouds below 12,000 feet with no
significant weather and/or obstructions to visibility.


ACROSS SOUTHEAST TEXAS

CITY           SKY/WX    TMP DP  RH WIND       PRES   REMARKS
BEAUMONT       CLEAR     74  71  91 CALM      30.03S
BEAUMONT CITY    N/A     71  70  98 CALM      30.04S
ORANGE         SUNNY     71  71 100 CALM      30.05S
JASPER         CLEAR     71  67  88 E3        30.08S
$$

ACROSS CENTRAL LOUISIANA

CITY           SKY/WX    TMP DP  RH WIND       PRES   REMARKS
LEESVILLE      PTCLDY    72  66  81 E6        30.07S
FULLERTON        N/A     72  66  81 CALM      30.05S
ALEXANDRIA INT CLEAR     72  64  76 E6        30.06S
ESLER FIELD    CLEAR     67  64  90 CALM      30.07F
DERIDDER         N/A     74  67  78 CALM      30.08F
OAKDALE        PTSUNNY   70  68  93 CALM      30.07S
OPELOUSAS      PTSUNNY   69  67  93 CALM      30.06S
$$

ACROSS SOUTHWEST AND SOUTH CENTRAL LOUISIANA

CITY           SKY/WX    TMP DP  RH WIND       PRES   REMARKS
SULPHUR        SUNNY     73  71  92 NE5       30.06R
LAKE CHARLES   CLEAR     73  69  87 NE5       30.04S
CHENNAULT INT  PTCLDY    74  68  80 NE6       30.06S
CAMERON PHI    SUNNY     75  68  78 E5        30.04S
DEQUINCY         N/A     73  67  83 CALM      30.06S
JENNINGS         N/A     71  69  92 E6        30.05F
LAFAYETTE      CLOUDY    72  69  90 N5        30.06S
NEW IBERIA     CLEAR     75  68  78 NE6       30.06S
ABBEVILLE        N/A     71  69  94 CALM      30.05S
PATTERSON      CLEAR     72  68  88 NE6       30.08R
SALT POINT       N/A     76  71  85 CALM      30.03S
$$

SELECTED SITES ACROSS THE REGION

CITY           SKY/WX    TMP DP  RH WIND       PRES   REMARKS
HOUSTON BUSH   PTCLDY    74  72  93 CALM      30.04S
HOUSTON HOBBY  PTCLDY    75  73  93 CALM      30.03F
GALVESTON      MOCLDY    82  76  81 CALM      30.04S
COLLEGE STAT   CLEAR     75  73  93 S3        30.04F
CONROE         CLEAR     70  69  97 CALM      30.05F
HUNTSVILLE     CLOUDY    78  66  66 S6        30.05S
LUFKIN         PTCLDY    76  70  82 E7        30.05S
SHREVEPORT     PTCLDY    72  64  76 SE5       30.06S
MONROE         CLEAR     64  61  90 CALM      30.09S
NATCHEZ MS     CLEAR     64  59  82 CALM      30.08S
BATON ROUGE    MOCLDY    70  64  81 NE5       30.06R
N.O. INTL ARPT PTCLDY    77  66  68 NE13      30.03S
SLIDELL        CLEAR     68  65  90 N3        30.03S
$$

MARINE REPORTS

STATION/POSITION TIME  TEMP    WIND        PRES    VSBY  WAVE
                       AIR SEA DIR/SP/G                  HT/PER
                 (UTC) (F)     (DEG/KT/KT) (MB)    (MI)  (FT/S)
BUOY 30 S HIGH I NOT AVBL
SEA RIM ST PARK  0900   78      70/  5/  5 1017.6S
PORT ARTHUR      0900      87  100/  4/  6 1017.0S
SABINE PASS N    0900   79 86   60/  5/  6 1017.0S
TEXAS POINT      0900   84 86   90/  7/ 10 1017.1S
CALCASIEU PASS   0900   79 87   90/  7/  7 1018.1S
LK CHARLES BEACH 0900   77 86              1018.2R
MARSH ISLAND     0800   82      60/  9/ 12   N/A
FRESH WATER LOCK 0900   75 86   10/  5/  7 1017.2R
AMERADA PASS     0900   75 84   60/  1/  4 1017.0R
$$


USA.gov is the U.S. government's official web portal to all federal, state and local government web resources and services.